Location: Newark
(34.0000°S, 64.0000°W)
Time: 13:36:08
(UTC+00:00)

X-37B - Visible Passes

Search period start: 08 March 2021 00:00
Search period end: 18 March 2021 00:00
Orbit: 383 x 391 km, 45.0° (Epoch: 27 February)

Date Brightness Start Highest point End Pass type
(mag) Time Alt. Az. Time Alt. Az. Time Alt. Az.
12 Mar 3.4 09:47:02 10° N 09:49:08 16° NE 09:51:14 10° E visible
14 Mar 2.0 09:25:55 10° NNW 09:28:50 34° NE 09:31:48 10° ESE visible
15 Mar 3.0 08:30:18 16° NE 08:30:39 17° NE 08:32:47 10° E visible
16 Mar 0.6 09:07:18 31° NW 09:08:39 79° NE 09:11:52 10° ESE visible
17 Mar 3.1 08:11:52 22° E 08:11:52 22° E 08:13:20 10° ESE visible
17 Mar 1.9 09:44:11 10° W 09:47:02 28° SSW 09:49:53 10° SE visible
